MST,Max TemperatureF,Mean TemperatureF,Min TemperatureF,Max Dew PointF,MeanDew PointF,Min DewpointF,Max Humidity, Mean Humidity, Min Humidity, Max Sea Level PressureIn, Mean Sea Level PressureIn, Min Sea Level PressureIn, Max VisibilityMiles, Mean VisibilityMiles, Min VisibilityMiles, Max Wind SpeedMPH, Mean Wind SpeedMPH, Max Gust SpeedMPH,PrecipitationIn, CloudCover, Events, WindDirDegrees
2013-11-1,49,36,23,30,23,17,78,54,29,30.24,30.11,29.90,10,10,10,31,12,37,0.00,3,,312
2013-11-2,67,43,19,30,21,14,88,51,14,30.24,29.97,29.61,10,10,10,23,5,31,0.00,0,,187
2013-11-3,57,42,27,32,27,18,85,54,22,29.90,29.69,29.52,10,8,0,26,9,35,T,5,Fog-Rain-Snow,330
2013-11-4,38,26,13,29,22,10,100,70,40,30.12,29.99,29.92,10,5,0,15,4,18,0.13,6,Fog-Snow,310
2013-11-5,39,29,18,28,19,11,92,62,32,30.21,30.12,30.00,10,10,10,22,9,28,T,2,,290
2013-11-6,49,35,20,24,18,14,88,58,28,30.40,30.25,30.14,10,10,10,29,9,36,0.00,3,,307
2013-11-7,52,36,19,30,25,17,92,64,35,30.44,30.22,29.81,10,10,10,23,5,29,0.00,1,,176
2013-11-8,56,40,23,31,24,21,81,54,27,30.09,29.82,29.66,10,10,10,38,13,51,0.00,2,,311
2013-11-9,48,36,24,28,24,21,92,67,42,30.31,30.22,30.05,10,10,10,16,6,21,0.00,2,,95
2013-11-10,65,44,22,30,25,20,88,56,24,30.29,30.18,30.08,10,10,10,22,6,26,0.00,0,,301
2013-11-11,41,33,25,27,26,23,92,76,59,30.68,30.44,30.08,10,10,5,21,6,26,0.00,4,,51
2013-11-12,55,39,22,34,28,20,100,73,46,30.69,30.54,30.34,10,5,0,10,3,12,0.00,2,Fog,159
2013-11-13,61,45,28,38,26,21,75,49,23,30.30,30.12,30.00,10,10,10,23,7,33,T,2,Rain,316
2013-11-14,53,42,31,37,31,28,92,67,41,30.11,29.94,29.68,10,10,10,17,5,21,0.01,1,Rain,215
2013-11-15,56,40,24,26,23,18,92,59,26,29.69,29.54,29.39,10,10,10,26,10,33,0.00,1,,260
2013-11-16,47,39,31,21,17,11,52,43,33,29.41,29.35,29.30,10,10,10,36,20,48,0.00,2,,270
2013-11-17,44,36,28,19,12,1,52,34,16,30.06,29.85,29.42,10,10,10,38,20,49,0.00,1,,294
2013-11-18,61,41,21,22,18,14,77,47,16,30.12,30.02,29.87,10,10,10,22,7,26,0.00,0,,245
2013-11-19,59,45,31,29,24,17,53,40,27,29.84,29.69,29.61,10,10,10,37,12,45,0.00,0,,256
2013-11-20,57,35,13,29,18,5,81,55,28,30.27,29.92,29.65,10,8,2,36,15,44,T,5,Snow,303
2013-11-21,16,6,-5,7,3,-11,80,73,65,30.81,30.47,30.22,10,4,0,17,8,22,T,6,Snow,328
2013-11-22,26,7,-12,13,-3,-18,79,67,55,30.90,30.77,30.50,10,9,1,13,4,14,0.00,0,,319
2013-11-23,30,16,1,13,5,-5,79,61,42,30.87,30.70,30.41,10,10,10,16,5,20,0.00,0,,332
2013-11-24,44,27,9,22,13,3,84,59,33,30.40,30.22,30.06,10,10,10,23,6,31,0.00,1,,319
2013-11-25,45,34,22,22,21,19,88,63,37,30.42,30.30,30.15,10,10,10,16,8,20,0.00,4,,319
2013-11-26,49,35,20,22,20,16,84,61,37,30.46,30.36,30.25,10,10,10,18,7,23,0.00,3,,310
2013-11-27,58,38,17,24,19,14,84,54,23,30.21,30.14,30.03,10,10,10,24,7,29,0.00,0,,314
2013-11-28,45,31,16,26,20,12,88,65,41,30.29,30.21,30.15,10,10,10,13,3,31,0.00,0,,139
2013-11-29,57,37,17,25,20,14,91,57,23,30.18,30.14,30.08,10,10,10,23,7,26,0.00,0,,312
2013-11-30,52,38,24,24,21,18,81,55,29,30.22,30.16,30.08,10,10,10,18,6,23,0.00,0,,322